Wetbulb
51.68 50.60 49.44 48.38 48.12 47.32 46.80 46.51 46.39 46.14 46.34 46.53 46.92 45.90 45.92 45.14 44.36 39.53 36.83 41.06 38.19 35.78 36.13 39.44 40.75 40.34 39.37 35.55 32.73 35.43 34.69 35.55 35.50 33.97 32.96 32.26 30.31 32.74 31.29 32.43 30.74 28.94 27.53 27.42 27.17 25.86 20.31 35.74 38.06 37.07 39.94 40.01 39.25 39.02
51.65 50.60 49.32 48.31 48.19 47.37 47.15 46.87 46.47 45.93 46.26 46.11 46.49 46.56 45.51 45.64 44.97 41.83 35.25 40.75 41.96 34.51 36.26 40.61 40.16 41.80 42.59 44.46 38.69 36.93 34.27 35.44 36.34 34.22 34.58 35.06 30.90 34.43 29.91 30.89 35.34 29.63 30.30 27.82 28.60 27.79 35.60 38.21 39.76 42.05 41.74 40.11 39.06 38.25
51.44 50.11 49.25 48.34 48.07 47.52 47.47 46.93 46.39 45.97 46.22 45.93 46.48 46.82 45.66 45.18 45.74 42.78 37.76 37.66 36.57 32.95 32.37 34.73 33.98 40.68 43.11 42.35 44.34 36.51 38.09 40.20 40.23 40.26 36.79 35.79 29.81 31.47 27.59 27.78 29.66 34.13 36.11 32.44 33.76 36.89 36.68 39.55 41.40 40.72 40.20 39.41 39.78 39.42
50.94 49.96 49.02 48.62 48.15 47.72 47.32 46.86 46.24 46.10 46.12 45.79 46.06 46.62 44.95 45.21 44.72 44.30 37.76 38.93 37.18 33.01 28.60 31.48 42.55 40.62 47.51 43.52 43.11 44.23 41.84 42.51 41.58 41.06 38.89 37.17 34.53 34.59 30.48 31.27 31.35 34.28 35.55 35.32 33.20 36.00 38.74 40.90 41.37 41.08 39.91 39.07 38.28 38.49
50.46 49.90 49.51 49.05 48.21 47.75 47.22 46.71 46.20 46.00 45.70 45.45 46.23 44.98 44.74 44.66 44.65 41.80 38.29 38.14 39.70 32.45 29.13 30.17 37.09 41.19 46.26 46.53 46.15 44.47 43.09 42.79 42.38 40.14 38.71 36.79 39.19 37.10 33.31 32.39 30.57 34.91 34.97 34.90 35.94 37.89 36.61 38.82 40.44 41.07 39.42 38.53 38.50 37.46
50.25 49.74 49.18 48.39 47.97 47.80 47.09 46.54 45.94 45.47 45.04 45.25 45.49 44.77 44.63 44.50 44.39 37.22 34.32 35.31 40.76 39.59 30.78 28.21 39.92 43.27 45.31 46.42 45.06 44.31 43.92 42.72 41.35 41.80 39.97 40.79 42.20 39.30 35.21 32.88 35.11 35.54 36.83 37.68 36.89 36.14 37.24 39.05 39.34 37.76 37.14 37.29 36.88 36.56
49.92 49.44 48.63 48.14 48.50 47.67 46.99 46.21 45.32 44.95 44.74 45.48 44.36 44.25 44.13 44.25 37.91 32.07 30.61 39.95 41.80 40.39 32.76 29.38 33.34 43.72 46.01 45.37 45.29 44.33 44.34 43.79 42.97 41.96 40.25 39.76 40.37 41.02 37.98 33.69 35.16 34.43 34.83 35.57 38.77 37.88 35.53 36.16 36.05 35.82 35.53 35.43 36.48 34.82
49.66 49.13 48.56 48.16 48.03 47.47 46.69 45.71 44.89 44.37 44.41 44.77 43.76 43.86 44.75 44.70 41.73 37.46 40.87 43.03 41.65 36.26 34.31 30.34 33.11 39.82 44.91 41.61 40.68 44.83 43.03 43.37 42.74 41.38 41.14 39.39 40.45 40.00 34.48 38.48 33.22 33.81 33.58 34.35 34.52 35.84 36.79 37.82 36.68 34.77 33.39 33.20 32.82 32.91
49.11 48.84 48.77 48.30 47.77 47.06 45.88 44.96 43.98 43.99 44.78 43.90 43.38 44.22 39.60 36.70 34.90 37.49 44.18 43.64 41.50 37.02 32.49 34.68 31.46 32.46 43.11 41.51 42.30 42.49 42.38 37.61 41.90 38.62 38.55 39.86 37.20 34.20 36.76 35.68 34.63 33.35 32.55 32.31 33.22 34.17 35.94 35.16 36.28 36.22 33.88 32.77 31.45 31.87
48.63 48.56 48.29 48.07 47.27 45.86 45.10 44.07 43.70 44.45 42.88 42.02 41.56 37.24 35.17 39.43 44.85 45.27 40.60 35.96 35.53 36.68 36.19 34.61 38.06 35.98 38.89 39.09 38.23 39.94 40.45 37.68 32.55 37.49 39.77 35.93 35.12 36.30 33.95 32.35 32.71 31.81 32.27 31.21 32.32 32.37 31.68 33.43 34.56 35.16 36.31 35.14 33.42 32.36
48.46 48.28 48.03 47.40 45.70 44.94 44.07 43.88 44.41 41.85 41.13 37.52 35.76 36.00 40.22 43.48 41.27 38.69 35.00 33.55 34.90 33.62 37.71 37.70 37.50 36.82 40.09 36.36 37.04 38.61 34.84 34.83 31.88 33.86 34.53 32.46 32.84 34.39 31.86 31.19 31.17 30.44 30.44 31.37 33.28 33.83 34.83 34.96 34.05 33.97 35.03 38.01 36.20 34.18
48.08 47.75 47.32 45.84 44.89 44.19 43.80 44.44 43.20 35.74 34.90 36.82 36.47 39.25 39.12 38.04 36.18 32.91 32.64 34.01 33.28 30.30 35.70 37.32 37.22 38.38 39.02 39.84 34.33 34.76 33.20 33.43 29.14 36.07 32.90 29.71 32.55 29.84 29.75 28.40 28.71 28.95 31.61 34.51 35.30 35.25 35.61 36.02 36.57 35.22 35.84 37.61 37.72 35.30
47.59 47.21 46.04 45.06 44.24 43.63 44.29 43.88 42.72 40.06 40.46 37.92 36.46 32.56 34.60 34.54 29.36 29.06 26.96 30.41 31.51 35.37 35.54 35.93 35.22 38.07 37.82 38.25 34.38 33.56 32.28 32.12 35.66 31.83 29.50 28.59 30.20 28.64 27.74 28.65 28.61 29.80 33.20 33.89 33.65 34.15 34.56 35.28 37.10 36.73 32.47 32.72 33.53 32.41
46.66 45.82 44.97 44.20 43.16 43.03 43.10 43.84 42.11 40.46 37.00 33.44 31.15 27.78 29.89 29.64 30.33 30.94 27.36 29.99 30.65 34.27 35.37 37.34 35.90 36.36 38.20 33.83 35.39 32.30 34.05 33.25 28.59 27.10 27.15 29.19 29.27 27.67 28.31 28.84 29.61 29.62 30.21 30.65 31.11 31.66 31.89 32.09 33.14 35.72 35.81 33.15 31.79 30.72
45.31 44.89 43.80 42.73 42.65 42.62 42.91 41.94 41.32 37.37 34.91 30.50 30.79 24.73 28.60 31.08 31.45 32.12 32.42 33.24 34.39 36.03 36.43 35.65 34.63 35.83 33.18 32.67 32.98 31.87 30.04 27.22 29.21 26.56 25.56 28.75 27.62 26.50 26.69 27.18 27.09 28.25 28.88 28.94 29.57 29.77 30.22 30.64 30.01 30.60 33.10 34.51 33.54 31.66
44.63 43.72 41.10 43.12 43.13 43.03 41.90 40.46 36.87 33.67 28.12 29.02 28.46 25.16 26.63 28.94 29.31 30.40 32.08 32.31 34.60 36.30 35.63 34.81 32.96 26.46 30.63 27.55 29.77 27.38 25.18 21.21 23.86 22.90 24.65 28.27 25.83 26.14 25.96 26.32 26.10 27.43 28.23 27.96 28.08 28.91 29.17 28.77 28.50 28.57 29.46 29.36 31.17 32.43
42.29 38.57 42.96 43.42 42.23 41.23 39.96 34.08 32.29 26.77 25.52 19.49 18.38 25.87 28.01 25.43 21.10 27.22 32.96 33.46 35.19 34.71 32.26 32.76 30.22 28.87 30.74 28.17 26.93 29.84 22.15 23.62 22.34 21.85 25.70 29.19 28.08 25.03 24.61 25.77 26.64 27.15 25.76 25.32 25.89 26.59 27.63 28.06 27.84 27.46 26.22 26.50 25.95 26.33
37.77 41.12 42.48 41.87 38.88 37.10 34.32 30.38 26.90 23.46 18.30 17.87 21.53 22.12 26.50 28.55 27.26 29.57 30.65 33.36 34.28 32.54 31.94 31.64 32.31 30.09 29.06 27.32 23.26 24.46 20.17 16.31 19.98 24.11 24.98 27.49 26.59 24.64 25.25 24.50 25.57 24.44 22.89 23.14 21.44 22.11 22.89 25.92 25.28 25.51 25.04 24.82 24.28 24.19
39.66 41.55 41.96 40.35 37.32 32.75 28.64 27.92 26.12 19.31 21.16 24.74 26.30 26.11 25.93 25.69 27.98 27.34 27.95 31.76 34.12 34.05 31.16 29.78 29.34 27.70 26.60 23.87 21.66 15.52 16.65 19.60 24.55 25.55 25.52 25.79 27.27 27.07 24.83 21.55 22.33 20.33 18.61 17.15 19.64 20.37 21.82 24.00 24.25 24.20 24.24 25.55 24.87 24.47
42.73 41.90 41.10 39.91 36.42 29.24 25.21 24.23 29.41 24.97 21.09 24.87 26.37 24.82 25.27 24.09 24.15 23.43 25.20 27.25 29.88 28.65 25.55 23.83 23.90 27.04 26.31 25.93 23.09 22.77 22.47 24.88 24.79 23.35 22.67 21.82 21.00 14.89 19.00 18.59 20.52 17.84 17.52 17.29 15.87 21.63 16.45 19.70 21.79 21.78 22.04 23.85 26.47 25.44
39.54 39.51 38.85 35.30 30.85 29.52 26.81 24.90 24.37 25.29 25.44 24.65 25.18 26.13 24.72 24.15 20.48 17.64 17.62 24.35 26.80 24.97 19.43 23.86 24.22 26.30 22.01 20.50 25.32 26.12 25.18 24.12 24.33 25.29 24.47 16.73 20.51 17.79 14.81 13.18 10.54 17.63 16.94 15.72 15.39 16.48 18.54 17.43 18.21 19.30 16.44 24.38 26.09 27.18
36.24 38.38 32.69 31.55 23.73 22.22 21.92 23.89 23.94 25.49 24.03 23.02 23.29 23.24 21.58 20.04 20.51 21.15 22.97 20.91 21.32 23.95 25.37 23.48 19.39 20.75 21.23 21.99 20.84 19.81 22.20 23.32 21.61 22.38 24.37 23.41 17.50 14.54 14.44 14.99 12.45 8.36 7.29 8.78 10.63 13.42 15.03 15.27 17.43 19.07 20.89 20.92 24.98 25.54
36.05 30.76 23.20 20.05 16.91 15.01 12.42 19.57 16.21 17.02 16.76 18.02 18.98 19.10 19.04 18.45 18.66 21.53 16.20 18.24 22.37 26.00 24.72 19.20 15.83 14.44 19.29 18.79 21.76 20.56 20.46 19.29 19.56 19.41 20.15 18.04 17.19 15.74 14.92 14.53 13.99 7.77 7.36 12.43 13.64 13.45 11.23 18.67 19.26 19.22 18.36 18.62 22.48 23.63
32.49 22.06 20.20 16.20 12.32 10.38 13.91 7.72 16.59 13.82 14.16 15.90 13.24 13.22 14.29 15.15 18.31 16.73 14.74 18.42 21.86 19.64 18.39 18.20 16.90 15.40 16.63 15.92 17.05 17.15 18.14 18.19 15.08 12.08 12.02 14.66 11.66 13.42 16.54 16.32 16.97 15.65 16.22 16.08 12.72 13.03 13.31 14.47 18.53 14.73 14.74 14.16 15.39 15.44
22.88 18.48 21.33 14.83 13.19 7.75 5.61 5.27 3.64 9.63 7.95 8.63 9.19 10.66 11.12 13.07 11.66 11.92 14.21 18.51 16.33 14.53 15.11 14.52 16.14 15.12 15.53 13.42 14.47 15.10 14.65 17.25 16.22 15.97 12.84 13.78 12.38 10.92 10.64 11.95 15.55 16.66 17.01 10.82 14.44 14.70 13.17 11.59 11.52 10.97 12.07 12.64 12.03 11.67
13.93 16.08 18.66 19.35 15.32 8.85 7.41 2.65 2.45 5.08 5.92 4.92 6.22 6.64 5.34 7.56 7.94 11.56 15.22 16.01 13.87 12.82 11.77 11.61 12.74 11.73 14.43 16.83 16.74 14.61 17.72 17.34 16.39 14.33 12.69 16.00 15.88 12.70 7.15 10.27 9.42 12.75 13.88 15.61 10.93 11.17 11.32 10.77 9.89 8.46 10.54 11.76 18.08 14.70
13.17 12.37 19.93 19.59 14.65 12.34 9.25 10.46 11.44 7.02 1.52 5.86 6.08 5.82 5.09 5.07 6.28 14.12 15.76 14.81 14.16 14.05 11.66 9.36 14.49 18.70 18.95 17.46 16.71 14.71 12.45 17.01 15.99 14.93 12.65 13.43 14.43 15.46 15.66 14.17 13.18 14.80 14.84 12.76 10.49 11.32 10.63 10.74 10.77 10.52 10.54 10.10 8.30 9.82
21.71 15.89 15.14 12.70 8.72 6.93 5.90 5.35 3.46 4.78 7.10 11.44 11.47 5.26 6.89 10.19 15.37 16.72 16.31 14.14 11.53 5.54 4.58 6.53 9.85 12.94 14.00 14.66 10.88 12.42 6.87 3.49 3.62 6.32 9.29 10.56 8.04 7.06 6.61 11.35 11.35 19.35 15.81 13.31 11.65 9.31 11.05 12.71 12.47 11.72 11.32 11.54 12.46 11.72
21.00 17.49 14.12 2.95 2.84 3.03 6.42 9.02 8.71 11.40 15.68 13.48 11.05 8.70 10.07 13.38 11.22 10.16 12.01 7.69 0.88 3.84 7.65 8.01 8.11 2.63 3.80 2.75 1.93 2.14 3.94 11.89 13.27 11.90 11.51 14.98 9.12 11.52 2.60 3.69 5.32 4.41 4.22 4.98 16.68 19.71 13.99 13.50 15.24 15.12 14.61 14.95 15.24 13.86
16.09 15.38 8.11 -0.12 5.76 8.25 11.11 10.46 6.07 3.05 8.90 10.96 11.25 9.91 10.12 10.31 10.55 5.46 4.81 2.15 6.87 12.24 14.24 10.46 8.06 10.64 12.78 11.53 10.17 8.25 5.19 6.75 11.89 16.64 15.54 16.91 13.37 4.29 -2.24 -0.36 0.74 1.31 1.91 3.71 6.54 8.00 17.26 14.63 13.81 11.94 12.23 11.31 10.88 11.55
12.66 7.95 4.42 4.65 7.24 4.89 0.40 0.10 0.31 7.95 -0.31 -2.97 -4.23 3.69 7.59 4.84 8.94 9.52 10.77 12.90 15.92 1.97 3.87 6.16 1.20 1.84 8.91 8.18 9.89 7.48 12.41 8.49 8.53 8.01 4.97 2.10 -0.12 -0.49 1.28 2.24 4.38 5.28 5.18 5.60 7.20 9.43 10.59 10.11 9.53 10.32 10.66 8.77 7.24 14.51
5.58 7.27 7.55 3.65 4.92 -2.63 -4.95 -2.97 -4.37 -1.47 -5.62 -3.32 -0.19 -8.73 -1.25 1.13 5.15 12.64 4.14 0.82 0.88 5.14 11.86 10.89 9.37 11.97 8.46 5.41 4.18 3.80 15.96 3.47 2.07 3.97 3.24 3.42 1.35 3.27 5.66 6.92 6.89 7.72 8.03 10.20 10.97 11.82 11.57 10.54 11.07 11.15 10.87 7.83 8.60 9.45
-1.56 -3.61 -7.05 -2.47 -0.11 0.13 -0.78 -0.05 -1.75 -1.55 -4.53 -4.67 0.38 -0.22 -1.68 4.37 10.10 12.65 2.57 -1.31 2.63 3.34 3.84 5.84 3.19 1.82 2.35 4.13 4.84 2.73 10.28 0.19 2.36 15.65 19.19 20.88 22.87 19.85 18.11 17.15 15.58 13.04 11.17 12.20 13.58 13.96 12.09 12.62 12.13 10.77 10.69 10.02 11.20 12.36
MSLP
1016.72 1017.23 1017.31 1017.94 1018.40 1018.63 1018.79 1018.76 1019.03 1018.97 1019.02 1018.97 1018.83 1018.80 1018.74 1018.57 1018.43 1018.70 1018.99 1018.81 1019.01 1018.27 1016.89 1016.21 1015.54 1015.21 1014.72 1014.52 1014.53 1014.31 1014.51 1014.47 1014.52 1014.50 1014.82 1014.97 1015.22 1015.30 1015.42 1015.24 1015.32 1015.69 1016.20 1016.17 1016.33 1015.64 1014.26 1012.52 1012.30 1012.09 1012.15 1012.02 1012.13 1012.31
1016.15 1016.62 1016.91 1017.02 1017.56 1018.02 1018.37 1018.43 1018.58 1018.64 1018.52 1018.70 1018.58 1018.46 1018.42 1018.27 1018.15 1018.33 1018.82 1018.60 1018.57 1018.86 1017.11 1016.25 1015.64 1015.02 1014.78 1014.50 1014.48 1014.26 1013.98 1013.66 1013.66 1014.12 1014.39 1014.73 1015.18 1015.33 1015.37 1015.18 1014.90 1015.11 1014.70 1014.85 1014.71 1013.92 1012.64 1012.20 1011.98 1011.56 1011.65 1011.95 1012.08 1012.33
1015.61 1016.32 1016.59 1016.78 1017.09 1017.36 1017.82 1018.02 1018.14 1018.27 1018.08 1018.24 1018.19 1017.97 1018.00 1017.89 1017.74 1017.90 1018.26 1018.45 1018.59 1018.42 1016.66 1015.75 1014.35 1013.41 1013.63 1013.72 1013.84 1014.30 1013.62 1013.13 1013.24 1013.23 1013.87 1014.47 1014.93 1015.20 1015.29 1015.08 1014.76 1014.30 1014.06 1014.16 1014.00 1012.57 1012.42 1011.99 1011.62 1011.68 1011.72 1011.91 1011.96 1012.27
1014.71 1015.58 1015.97 1016.13 1016.42 1016.82 1017.21 1017.49 1017.65 1017.76 1017.59 1017.71 1017.70 1017.55 1017.59 1017.52 1017.46 1017.47 1017.97 1017.92 1018.18 1018.47 1017.31 1014.64 1012.94 1013.03 1012.11 1012.58 1013.14 1013.31 1013.21 1012.94 1012.98 1013.23 1013.59 1013.92 1014.32 1014.57 1014.87 1014.88 1014.64 1013.80 1013.80 1013.53 1013.44 1012.87 1012.26 1011.86 1011.78 1011.84 1011.78 1011.94 1012.12 1012.39
1013.61 1014.52 1015.37 1015.63 1015.96 1016.45 1016.64 1016.98 1017.14 1017.23 1017.15 1017.18 1017.24 1017.20 1017.12 1017.11 1017.01 1017.18 1017.44 1017.32 1017.28 1018.10 1017.18 1015.19 1013.47 1012.02 1011.94 1011.96 1012.45 1012.81 1012.92 1012.86 1012.97 1013.35 1013.47 1013.52 1013.49 1014.04 1014.54 1014.81 1014.21 1013.45 1013.19 1013.32 1012.97 1012.79 1012.81 1012.22 1011.92 1012.05 1012.15 1012.23 1012.30 1012.59
1013.11 1013.61 1014.32 1015.08 1015.54 1015.92 1016.27 1016.52 1016.71 1016.81 1016.75 1016.76 1016.72 1016.74 1016.67 1016.66 1016.70 1017.36 1017.35 1016.91 1016.84 1017.25 1017.64 1015.52 1013.12 1011.55 1011.53 1011.55 1012.02 1012.46 1012.47 1012.50 1012.67 1012.79 1012.87 1012.92 1012.77 1013.19 1014.02 1013.96 1012.91 1012.87 1012.85 1012.89 1012.89 1012.89 1012.81 1012.48 1012.38 1012.57 1012.59 1012.45 1012.46 1012.68
1011.97 1012.80 1013.56 1014.20 1014.74 1015.35 1015.79 1016.07 1016.35 1016.44 1016.37 1016.36 1016.29 1016.25 1016.15 1016.15 1016.82 1016.99 1016.63 1016.45 1016.54 1016.95 1017.12 1015.26 1012.76 1010.93 1011.12 1011.23 1011.78 1012.08 1012.20 1012.35 1012.45 1012.53 1012.66 1012.75 1012.78 1012.96 1013.18 1013.07 1012.78 1013.05 1013.19 1013.24 1013.32 1013.35 1013.13 1012.79 1012.95 1012.95 1012.89 1012.73 1012.78 1012.95
1011.07 1011.82 1012.75 1013.45 1014.17 1014.80 1015.30 1015.64 1016.00 1016.01 1016.09 1015.93 1015.85 1015.81 1015.59 1015.26 1015.87 1016.22 1016.12 1016.22 1016.75 1017.09 1016.64 1014.59 1012.11 1011.03 1010.74 1011.22 1011.62 1011.87 1012.07 1012.33 1012.38 1012.32 1012.50 1012.61 1012.83 1012.77 1012.50 1012.34 1012.84 1013.18 1013.52 1013.63 1013.87 1013.95 1013.80 1013.44 1013.25 1013.06 1012.93 1012.97 1013.05 1013.24
1010.29 1011.03 1011.79 1012.75 1013.40 1014.11 1014.76 1015.30 1015.48 1015.64 1015.67 1015.62 1015.60 1015.54 1015.64 1015.63 1015.59 1015.10 1015.16 1015.86 1016.47 1016.95 1015.40 1013.31 1011.92 1011.05 1011.12 1011.02 1011.38 1011.84 1011.92 1012.32 1012.36 1012.25 1012.29 1012.42 1012.21 1012.04 1011.88 1012.44 1013.10 1013.66 1014.02 1014.18 1014.09 1013.99 1013.67 1013.55 1013.26 1013.04 1013.01 1012.98 1013.15 1013.25
1009.16 1010.10 1011.16 1011.73 1012.78 1013.59 1014.28 1014.73 1015.03 1015.26 1015.44 1015.49 1015.58 1015.75 1015.32 1014.76 1014.58 1014.71 1015.41 1015.87 1016.11 1015.38 1014.74 1012.93 1011.64 1011.07 1011.15 1011.08 1011.56 1011.84 1011.94 1011.95 1012.17 1012.14 1012.20 1012.27 1011.88 1011.92 1012.51 1013.18 1013.65 1014.07 1014.35 1014.52 1014.50 1014.01 1013.76 1013.50 1013.39 1013.13 1012.91 1012.81 1012.83 1012.88
1007.89 1009.21 1010.63 1011.36 1012.23 1013.06 1013.72 1014.21 1014.66 1015.14 1015.33 1015.52 1015.51 1015.06 1014.65 1014.49 1014.54 1014.25 1014.08 1014.38 1014.02 1013.57 1012.83 1012.10 1011.72 1011.45 1011.44 1011.50 1011.45 1011.80 1011.78 1012.03 1012.10 1012.39 1012.45 1012.33 1012.14 1012.67 1013.36 1013.83 1014.24 1014.39 1014.51 1014.45 1014.31 1014.01 1013.76 1013.47 1013.15 1012.84 1012.46 1012.21 1012.11 1012.26
1007.17 1008.89 1010.11 1011.11 1011.83 1012.68 1013.28 1013.82 1014.38 1014.89 1015.08 1015.14 1015.24 1014.86 1014.71 1014.32 1013.95 1013.71 1013.26 1013.10 1012.94 1012.55 1012.00 1011.71 1011.66 1011.48 1011.54 1011.44 1011.66 1012.06 1012.01 1012.25 1012.20 1012.41 1012.75 1012.51 1012.62 1013.43 1013.89 1014.31 1014.52 1014.65 1014.60 1014.35 1014.04 1013.74 1013.44 1013.13 1012.74 1012.46 1012.05 1011.69 1011.54 1011.63
1006.54 1008.20 1009.77 1010.71 1011.65 1012.29 1013.02 1013.56 1014.05 1014.30 1014.63 1015.08 1015.16 1014.75 1014.15 1013.76 1013.53 1013.08 1012.48 1012.47 1012.33 1011.96 1011.79 1011.68 1011.71 1011.51 1011.62 1011.54 1011.97 1012.09 1012.20 1012.35 1012.46 1012.63 1012.53 1012.51 1013.20 1014.03 1014.54 1014.74 1014.89 1014.89 1014.78 1014.57 1014.26 1013.86 1013.51 1013.13 1012.69 1012.31 1011.95 1011.59 1011.43 1011.65
1006.70 1008.36 1009.67 1010.67 1011.46 1012.24 1012.88 1013.23 1013.73 1014.09 1014.62 1014.95 1014.89 1014.43 1013.71 1013.01 1012.70 1012.34 1012.26 1012.20 1012.25 1012.09 1011.91 1011.75 1011.82 1011.80 1011.83 1012.05 1012.15 1012.40 1012.54 1012.69 1012.79 1012.78 1012.45 1012.76 1013.57 1014.46 1014.95 1015.15 1015.16 1015.17 1015.05 1014.86 1014.61 1014.27 1013.86 1013.51 1013.08 1012.68 1012.33 1012.10 1012.02 1012.16
1007.36 1008.76 1009.77 1010.76 1011.55 1012.23 1012.85 1013.20 1013.67 1014.13 1014.52 1014.84 1014.75 1014.14 1013.28 1012.74 1012.50 1012.48 1012.52 1012.53 1012.52 1012.34 1012.13 1012.11 1012.14 1012.04 1012.27 1012.45 1012.55 1012.83 1013.05 1012.98 1012.70 1012.46 1012.70 1013.06 1013.95 1014.73 1015.22 1015.50 1015.63 1015.61 1015.52 1015.30 1015.01 1014.69 1014.35 1013.95 1013.58 1013.23 1012.87 1012.58 1012.50 1012.60
1007.99 1009.16 1009.99 1010.74 1011.51 1012.12 1012.85 1013.49 1014.03 1014.52 1014.98 1015.13 1014.89 1014.35 1013.70 1013.39 1013.13 1012.90 1012.77 1012.74 1012.64 1012.48 1012.43 1012.33 1012.51 1012.67 1012.65 1012.89 1013.07 1013.11 1013.26 1013.01 1012.94 1012.92 1013.14 1013.62 1014.43 1014.99 1015.44 1015.73 1015.84 1015.85 1015.80 1015.67 1015.43 1015.18 1014.90 1014.57 1014.17 1013.79 1013.41 1013.21 1013.04 1013.06
1008.29 1009.11 1009.90 1010.87 1011.82 1012.66 1013.25 1013.91 1014.44 1014.82 1015.15 1015.36 1015.05 1014.52 1014.20 1013.99 1013.54 1013.16 1012.87 1012.83 1012.72 1012.77 1012.76 1012.73 1012.79 1012.71 1012.97 1013.15 1013.27 1013.07 1013.36 1013.03 1012.91 1013.25 1013.55 1013.83 1014.45 1015.12 1015.64 1015.88 1016.04 1016.11 1016.14 1016.07 1015.93 1015.72 1015.46 1015.11 1014.67 1014.31 1014.09 1013.92 1013.72 1013.43
1009.13 1009.64 1010.44 1011.39 1012.30 1013.22 1013.93 1014.21 1014.62 1015.01 1015.31 1015.18 1015.07 1014.76 1014.48 1014.20 1014.06 1013.79 1013.51 1013.31 1013.21 1013.13 1013.22 1013.10 1012.98 1013.04 1013.00 1012.90 1013.22 1013.00 1013.09 1013.25 1013.47 1013.48 1013.82 1014.21 1014.70 1015.34 1015.75 1016.05 1016.26 1016.40 1016.48 1016.46 1016.35 1016.16 1015.87 1015.57 1015.31 1015.17 1014.88 1014.56 1014.18 1013.86
1009.37 1009.99 1010.91 1011.72 1012.35 1013.20 1014.07 1014.74 1014.77 1014.95 1015.03 1014.98 1014.84 1014.84 1014.77 1014.63 1014.47 1014.42 1014.18 1013.88 1013.69 1013.64 1013.69 1013.66 1013.43 1012.95 1012.78 1012.61 1012.69 1013.09 1013.48 1013.70 1013.97 1014.19 1014.47 1014.73 1015.12 1015.62 1016.04 1016.40 1016.62 1016.84 1016.93 1016.92 1016.88 1016.72 1016.40 1016.00 1015.78 1015.57 1015.26 1014.81 1014.44 1014.05
1009.90 1010.74 1011.48 1012.09 1012.54 1013.40 1014.27 1014.94 1014.91 1014.98 1015.08 1014.95 1014.87 1014.96 1015.05 1015.16 1015.10 1014.95 1014.79 1014.51 1014.28 1014.27 1014.28 1013.93 1012.94 1012.33 1012.20 1012.25 1012.37 1012.66 1012.93 1013.31 1013.79 1014.38 1014.86 1015.23 1015.66 1016.16 1016.61 1016.86 1017.01 1017.09 1017.08 1017.08 1017.04 1016.93 1016.67 1016.36 1016.05 1015.87 1015.52 1015.06 1014.63 1014.30
1010.70 1011.52 1012.09 1012.52 1013.30 1013.77 1014.53 1015.02 1015.17 1015.16 1015.13 1015.09 1015.10 1015.07 1015.26 1015.37 1015.47 1015.52 1015.42 1015.00 1014.94 1014.52 1014.00 1013.00 1012.67 1012.33 1012.49 1012.58 1012.58 1012.77 1013.03 1013.24 1013.49 1013.75 1014.31 1015.35 1015.88 1016.33 1016.76 1017.03 1017.26 1017.39 1017.45 1017.45 1017.41 1017.15 1016.96 1016.74 1016.46 1016.14 1015.81 1015.24 1014.83 1014.45
1011.16 1011.62 1012.31 1012.75 1013.67 1014.57 1015.27 1015.74 1015.69 1015.58 1015.63 1015.59 1015.60 1015.66 1015.83 1016.03 1016.08 1016.00 1015.81 1015.56 1014.73 1013.34 1012.82 1012.61 1012.71 1012.65 1013.02 1013.03 1013.02 1012.95 1012.99 1013.32 1013.70 1014.00 1014.38 1014.87 1015.93 1016.57 1017.01 1016.99 1017.29 1017.39 1017.33 1017.30 1017.30 1017.22 1016.92 1016.68 1016.35 1016.01 1015.71 1015.34 1014.93 1014.57
1011.28 1011.83 1012.75 1013.54 1014.51 1015.35 1016.71 1016.37 1016.53 1016.42 1016.32 1016.31 1016.31 1016.35 1016.46 1016.53 1016.51 1016.37 1016.05 1015.14 1013.66 1012.41 1012.39 1012.72 1012.93 1013.03 1013.14 1013.04 1013.06 1013.23 1013.39 1013.58 1014.08 1014.35 1014.74 1015.18 1015.60 1016.04 1016.36 1016.64 1016.79 1016.90 1017.09 1016.86 1016.87 1017.05 1017.00 1016.50 1016.25 1016.01 1015.74 1015.42 1014.92 1014.65
1011.62 1012.73 1013.75 1014.98 1015.50 1016.89 1017.05 1017.51 1017.34 1017.39 1017.21 1017.14 1017.21 1017.26 1017.14 1017.01 1016.85 1016.61 1016.02 1014.64 1013.28 1013.02 1013.07 1013.09 1013.25 1013.51 1013.57 1013.50 1013.58 1013.59 1013.53 1013.77 1014.14 1014.56 1014.85 1015.23 1015.87 1015.94 1016.06 1016.10 1016.24 1016.33 1016.32 1016.26 1016.48 1016.69 1016.69 1016.57 1016.21 1016.05 1015.87 1015.72 1015.45 1015.13
1012.56 1014.07 1014.59 1015.91 1016.54 1017.28 1017.93 1018.30 1018.59 1018.28 1018.37 1018.06 1018.11 1017.95 1017.83 1017.61 1017.28 1016.84 1015.95 1014.28 1013.62 1013.50 1013.14 1013.35 1013.40 1013.46 1013.59 1013.50 1013.61 1013.47 1013.60 1013.80 1014.27 1014.83 1014.86 1015.18 1015.47 1015.79 1016.02 1016.02 1015.81 1015.57 1015.51 1016.05 1016.01 1016.09 1016.17 1016.04 1015.98 1016.01 1015.95 1015.83 1015.43 1015.13
1013.18 1014.40 1015.03 1015.63 1016.83 1017.43 1018.20 1018.93 1018.83 1018.69 1018.51 1018.52 1018.46 1018.50 1018.46 1018.02 1017.47 1016.34 1014.87 1013.60 1013.38 1013.47 1013.42 1013.46 1013.51 1013.64 1013.58 1013.48 1013.48 1013.49 1013.34 1013.63 1014.18 1014.57 1014.48 1014.60 1014.85 1015.14 1015.65 1015.86 1015.71 1015.18 1014.83 1015.03 1015.41 1015.67 1015.77 1015.82 1015.88 1015.91 1015.75 1015.53 1015.14 1015.01
1013.81 1014.69 1015.31 1015.83 1016.50 1017.44 1018.21 1018.28 1018.44 1018.65 1018.70 1018.45 1018.25 1018.49 1018.38 1017.96 1016.57 1014.64 1013.20 1012.87 1013.06 1012.78 1012.86 1013.04 1013.03 1013.08 1012.99 1013.07 1013.11 1013.04 1013.12 1013.40 1013.68 1013.80 1013.71 1013.77 1013.98 1014.02 1014.35 1014.62 1014.79 1014.41 1014.37 1014.74 1015.08 1015.19 1015.36 1015.43 1015.39 1015.27 1015.23 1014.95 1014.86 1014.72
1013.44 1014.58 1015.38 1016.34 1017.06 1017.59 1018.43 1018.63 1018.51 1018.18 1017.58 1017.36 1017.77 1018.03 1017.40 1016.01 1014.36 1013.04 1012.46 1012.18 1012.34 1012.62 1012.86 1012.78 1012.67 1012.77 1013.04 1012.99 1012.83 1012.93 1013.30 1013.64 1014.19 1014.15 1013.97 1013.91 1013.84 1013.82 1013.86 1013.86 1013.94 1014.07 1014.18 1014.40 1014.57 1014.69 1014.85 1014.80 1014.62 1014.47 1014.43 1014.25 1013.91 1013.67
1014.15 1015.00 1015.73 1017.50 1017.89 1018.35 1018.03 1017.83 1017.51 1016.60 1015.70 1016.37 1016.71 1016.20 1015.57 1014.28 1012.84 1012.61 1012.22 1012.44 1012.65 1013.22 1013.42 1013.17 1012.86 1012.80 1012.83 1012.83 1012.79 1012.89 1013.14 1013.49 1014.01 1014.03 1013.82 1013.73 1013.80 1013.70 1013.47 1013.65 1013.84 1013.93 1014.02 1014.21 1014.03 1013.80 1013.81 1013.84 1013.51 1013.19 1013.02 1012.94 1012.75 1012.67
1014.80 1015.28 1016.43 1017.47 1018.21 1017.79 1016.91 1016.62 1016.64 1016.13 1015.97 1015.95 1015.91 1015.42 1014.83 1013.72 1012.27 1011.93 1012.26 1012.70 1012.81 1012.57 1012.07 1012.06 1012.07 1012.45 1012.48 1012.74 1012.66 1012.88 1012.73 1012.77 1012.76 1012.85 1012.97 1013.08 1013.24 1013.39 1013.74 1013.97 1013.91 1013.69 1013.73 1013.89 1013.83 1013.50 1013.07 1012.96 1012.64 1012.49 1012.28 1012.34 1012.29 1012.22
1014.67 1015.79 1016.72 1017.10 1017.33 1016.91 1017.13 1017.25 1017.02 1016.51 1016.44 1016.57 1016.62 1016.68 1015.83 1014.57 1012.78 1011.34 1011.23 1010.81 1010.76 1011.51 1012.02 1011.94 1011.93 1011.94 1012.10 1012.14 1012.35 1012.59 1012.37 1011.92 1011.98 1012.08 1012.35 1012.75 1013.18 1013.46 1013.37 1013.21 1013.11 1013.15 1013.24 1013.33 1013.22 1012.99 1012.68 1012.46 1012.25 1012.08 1011.92 1011.84 1011.76 1011.47
1015.53 1015.96 1016.52 1017.15 1017.10 1017.13 1017.53 1017.74 1017.32 1017.01 1017.01 1017.07 1016.83 1016.96 1016.17 1015.56 1014.28 1011.66 1010.31 1010.71 1011.26 1011.39 1011.06 1011.34 1011.33 1011.09 1011.03 1011.07 1011.16 1011.35 1011.52 1011.65 1011.88 1011.88 1012.09 1012.29 1012.36 1012.17 1012.19 1012.22 1012.23 1012.29 1012.34 1012.27 1012.15 1011.96 1011.76 1011.63 1011.46 1011.28 1011.18 1011.06 1011.00 1010.83
1016.15 1016.47 1016.67 1016.62 1016.87 1016.86 1017.26 1017.29 1017.26 1016.98 1017.09 1016.81 1016.30 1015.96 1015.66 1015.34 1014.03 1011.13 1010.53 1010.59 1010.88 1010.80 1010.79 1010.70 1010.58 1010.60 1010.59 1010.60 1010.87 1011.27 1011.22 1011.51 1011.61 1011.71 1011.57 1011.28 1010.97 1010.97 1011.08 1011.04 1011.01 1010.97 1011.04 1010.96 1010.85 1010.74 1010.65 1010.55 1010.49 1010.42 1010.34 1010.27 1010.10 1009.88
Wind_Speed
18 17 16 14 13 10 10 10 10 10 11 11 10 8 8 6 4 4 2 1 1 3 7 4 3 3 3 1 4 3 4 2 1 3 3 3 2 3 3 3 5 7 6 4 4 4 7 4 1 3 1 1 2 3
21 19 17 15 14 11 11 10 10 10 10 12 12 11 10 8 7 5 2 2 2 2 5 4 9 9 6 5 1 1 3 4 5 3 1 2 2 2 3 3 1 4 6 5 8 7 5 2 3 2 2 5 3 3
20 18 17 15 15 13 12 11 10 11 11 12 13 9 9 10 8 3 3 3 2 3 6 4 11 13 10 13 8 2 2 3 2 2 4 2 2 4 4 5 3 4 4 3 1 2 6 8 4 4 4 5 2 3
19 19 18 18 17 15 13 12 11 11 12 12 14 11 9 9 8 7 3 3 3 1 5 7 2 6 5 9 10 7 2 1 5 2 2 3 3 3 3 2 2 5 6 5 4 7 6 6 3 3 2 2 2 2
23 20 20 17 16 16 13 13 11 11 11 12 13 10 11 11 11 3 3 4 4 4 4 7 12 7 5 9 8 6 5 3 2 2 2 3 2 3 1 1 4 5 7 5 4 3 1 5 2 4 4 4 5 4
22 21 20 15 17 17 14 13 11 10 11 12 10 11 10 12 9 2 3 1 4 4 1 4 5 5 4 7 7 6 4 2 2 2 3 2 1 4 3 3 5 4 1 2 4 2 5 8 7 4 5 4 3 4
25 22 21 20 18 17 15 12 9 9 10 12 9 11 13 14 3 4 4 1 10 4 3 4 4 3 6 5 3 2 2 1 2 2 3 3 3 5 3 5 4 3 1 2 1 5 2 2 2 8 5 3 2 1
25 24 22 21 19 17 14 11 8 8 10 10 9 13 14 4 6 3 2 14 6 1 3 4 3 3 2 3 2 2 2 2 2 1 2 2 1 3 6 5 3 2 4 3 3 3 5 9 6 6 2 1 2 3
25 23 23 21 20 18 13 10 7 7 8 6 9 8 2 1 2 3 12 17 4 3 4 3 1 3 2 2 2 2 1 2 1 2 2 2 3 7 5 4 3 2 1 4 6 6 7 3 6 5 4 4 4 5
28 25 23 22 20 16 13 9 6 6 2 5 1 1 4 3 5 11 6 5 4 4 4 4 2 2 0 2 2 3 2 2 3 2 2 3 4 2 4 4 3 1 1 2 4 5 5 5 5 7 7 5 6 5
27 25 22 22 20 17 13 9 7 6 4 1 2 3 1 1 2 3 4 4 4 3 4 3 0 1 0 2 2 1 2 2 2 2 2 2 3 3 3 2 2 2 3 5 5 6 7 8 9 9 9 9 7 7
26 24 23 22 20 17 13 10 11 4 3 3 1 2 2 2 3 3 4 2 3 3 2 2 3 2 1 1 3 1 2 1 3 3 2 3 2 2 2 2 4 4 4 4 5 6 6 7 7 7 8 8 7 6
26 26 26 23 21 18 13 12 11 8 6 1 2 2 3 3 5 5 6 3 2 2 1 1 1 1 1 2 3 1 1 2 2 2 4 3 3 2 2 2 3 4 5 4 5 6 7 8 8 5 6 4 1 3
28 25 23 22 18 15 10 9 11 7 3 2 3 4 5 4 3 2 2 1 1 1 1 2 2 1 1 2 1 2 1 1 2 3 5 3 4 5 3 2 2 4 5 5 6 6 7 7 7 7 6 4 2 3
26 25 22 19 17 15 10 12 10 2 2 2 2 5 5 1 1 2 1 1 1 1 0 2 1 1 1 2 2 1 2 4 5 4 3 2 6 6 4 2 2 3 3 4 5 6 7 8 6 5 5 4 3 2
26 23 6 18 14 16 16 11 3 2 2 1 3 2 3 1 2 2 2 1 1 1 1 2 2 3 2 3 3 6 3 6 4 3 3 5 6 5 5 3 1 1 2 3 4 5 5 7 7 6 5 6 4 1
14 2 18 22 20 16 11 3 2 2 3 2 3 2 2 2 3 1 2 2 1 2 1 2 4 5 1 3 4 4 5 5 4 3 3 5 7 6 5 3 2 1 2 3 4 4 4 6 5 5 7 7 6 5
4 11 25 24 12 6 2 2 3 3 3 3 1 2 2 1 1 1 1 1 2 2 1 2 1 3 4 4 3 4 3 2 1 3 3 3 5 5 4 4 3 2 3 3 3 4 3 3 4 4 5 5 4 3
8 13 24 18 6 4 3 1 2 3 4 1 1 1 1 1 1 1 1 1 2 1 1 1 4 4 4 4 4 3 3 3 4 3 3 3 4 5 4 3 2 1 1 2 3 3 3 4 2 3 4 4 4 4
22 22 18 13 5 3 3 1 0 2 1 1 0 0 1 0 1 1 1 0 1 1 1 4 5 4 4 3 4 3 3 4 4 4 2 3 3 4 3 3 2 0 2 2 2 4 2 4 3 4 4 4 4 4
9 10 10 4 2 3 3 2 1 0 0 1 0 0 0 1 2 2 1 1 1 3 4 5 4 4 0 1 1 2 3 5 5 4 4 3 3 3 2 2 2 2 1 2 3 4 4 3 3 4 4 5 5 5
3 6 3 2 4 2 4 3 1 1 1 1 1 1 0 0 1 1 1 1 4 5 5 4 3 3 2 3 3 4 3 6 4 4 6 8 4 2 2 3 3 2 2 3 2 3 3 2 3 3 3 4 6 6
8 3 3 3 5 4 2 2 2 3 2 1 1 0 1 1 1 2 2 4 5 3 1 2 2 1 1 1 2 2 4 5 4 4 4 4 3 2 2 2 3 3 3 3 3 3 3 6 6 4 3 4 4 5
5 4 3 3 3 1 1 4 2 2 2 1 1 1 1 1 2 1 4 4 4 1 2 3 3 2 2 2 2 3 3 3 3 1 2 4 3 3 4 4 4 4 5 2 3 3 3 4 4 2 3 2 4 4
4 2 3 2 2 5 3 3 3 3 1 1 1 2 1 1 0 2 4 4 3 3 2 1 1 1 3 1 2 2 3 4 4 5 3 4 3 2 2 3 4 5 3 3 3 4 3 2 1 2 2 3 5 6
1 2 3 4 1 3 4 2 2 4 2 1 4 1 2 2 1 5 5 4 4 3 3 3 4 2 3 4 2 2 4 5 3 2 3 6 6 5 4 3 3 4 2 3 3 3 3 3 3 4 5 6 11 8
1 3 2 2 4 4 2 2 2 3 3 5 3 2 3 0 5 6 3 3 3 4 4 3 4 5 3 2 3 3 1 5 4 3 1 3 4 5 5 4 5 4 3 4 3 4 4 3 4 4 6 5 5 6
4 4 7 4 2 1 5 2 5 6 5 4 4 4 7 9 6 5 5 3 3 2 1 2 3 3 3 3 2 3 2 3 2 1 2 2 3 3 4 4 2 7 4 4 5 4 4 6 6 6 7 9 8 6
2 3 4 2 1 1 6 7 6 5 4 5 6 5 7 5 4 3 3 2 2 2 1 2 3 1 0 1 1 2 3 6 7 6 6 5 2 5 2 2 2 1 1 2 9 10 8 8 9 10 12 10 8 6
4 3 4 2 6 7 6 6 4 2 1 1 2 3 4 4 4 1 2 2 2 6 5 4 3 5 5 5 3 3 4 4 5 5 5 6 5 2 3 3 2 3 2 3 4 6 12 7 7 5 6 4 4 5
4 3 3 2 6 4 2 2 3 1 2 1 1 3 5 5 6 5 6 5 6 2 3 4 3 4 4 4 5 3 4 4 8 8 4 2 3 3 4 4 4 4 4 4 5 6 7 6 5 6 7 8 8 10
1 6 6 4 5 3 3 1 1 1 2 1 3 1 4 3 5 6 2 3 3 3 9 5 5 6 7 3 2 2 2 2 2 3 5 3 3 4 4 4 4 4 5 7 7 7 8 9 8 8 8 9 9 9
2 1 2 1 3 3 2 3 3 4 2 3 5 4 4 4 8 5 1 1 3 3 3 3 3 2 2 4 4 3 3 2 2 5 8 9 11 9 6 5 6 7 7 7 8 8 10 11 9 9 9 9 9 9
Wind_Direction
214 212 201 209 231 230 259 264 281 293 299 296 298 297 293 286 303 128 249 274 49 293 279 262 273 264 328 129 160 206 64 308 68 144 171 182 190 194 188 188 170 175 168 194 197 217 270 199 69 164 204 254 231 241
211 210 210 203 214 221 241 252 270 282 294 297 290 281 285 290 275 147 218 219 163 205 280 319 270 266 228 245 233 242 197 167 190 104 140 116 161 162 214 215 212 208 185 183 178 212 236 226 273 306 162 229 231 222
211 214 211 210 215 220 226 245 262 273 287 294 293 276 278 284 270 201 211 178 93 273 273 221 240 248 214 218 206 231 274 181 167 154 150 131 193 134 183 236 193 234 168 217 47 248 235 256 268 243 224 228 225 225
200 208 211 213 208 216 224 241 250 266 281 290 285 279 285 289 285 278 184 192 125 282 282 283 249 258 202 164 186 195 266 31 111 98 122 151 187 164 212 239 209 207 144 202 254 288 286 298 275 309 315 226 249 236
199 202 214 208 207 217 219 240 250 269 278 287 291 283 284 285 284 294 203 206 167 159 304 290 307 233 212 166 183 194 186 165 140 125 167 210 137 143 147 88 242 191 195 176 215 177 231 254 187 342 287 266 251 224
198 202 208 205 214 216 216 237 247 267 287 284 279 282 285 288 312 76 293 271 179 132 256 282 318 230 165 164 163 187 188 130 140 187 179 213 234 126 221 237 241 205 173 200 223 193 226 265 286 13 314 309 265 228
196 200 196 208 210 206 218 226 243 265 277 292 283 293 293 283 156 169 204 129 158 109 235 261 243 161 130 143 137 134 133 155 145 180 206 186 204 166 221 239 211 201 328 311 34 326 245 28 300 319 293 311 356 6
195 192 199 204 202 204 211 219 235 270 276 289 302 301 299 69 125 221 182 145 141 142 237 264 259 154 133 113 138 145 143 149 187 209 151 183 158 190 243 223 166 151 306 268 59 345 276 287 294 288 275 285 261 266
193 196 193 199 191 196 200 209 228 261 276 289 305 308 47 224 178 234 171 157 147 252 284 264 139 130 190 104 91 103 115 172 151 215 212 183 185 226 223 168 168 93 326 298 323 305 287 307 318 305 262 256 244 254
197 191 191 184 185 182 188 201 216 252 282 294 157 170 232 202 196 126 147 158 197 206 222 261 344 53 133 73 130 147 182 196 193 199 130 225 245 82 104 79 61 53 299 299 300 312 326 319 311 297 282 253 235 233
182 179 185 172 169 175 179 177 194 136 107 120 197 231 355 18 214 206 194 205 190 221 204 229 235 109 43 140 171 270 162 174 223 167 222 241 249 123 70 64 20 353 300 270 244 253 254 262 275 281 279 263 230 216
166 169 168 165 168 167 168 181 156 131 181 181 261 303 258 199 208 227 199 171 217 223 238 195 197 207 158 170 106 303 156 131 245 134 222 247 130 122 67 24 4 1 340 328 327 322 316 301 289 270 263 260 237 208
159 157 164 166 164 160 151 164 169 149 123 90 222 256 208 171 221 216 193 184 206 191 193 162 140 148 71 54 71 117 170 209 122 222 239 228 125 93 48 21 26 24 19 360 350 341 344 341 340 336 326 335 329 149
145 152 158 158 163 167 154 166 156 147 114 194 209 233 214 186 223 202 172 170 81 336 168 109 73 175 151 71 132 197 133 108 245 238 234 173 156 143 105 54 45 24 11 9 352 345 354 353 343 350 5 7 59 122
148 151 148 157 163 172 156 144 134 82 139 207 214 234 217 173 70 129 112 109 238 262 158 101 58 80 45 153 181 164 209 238 224 233 224 150 141 143 126 82 36 26 357 350 348 355 351 350 348 342 352 10 38 61
141 140 128 150 159 150 141 115 64 81 55 191 235 270 258 263 174 170 152 171 213 147 90 59 110 59 220 179 176 213 183 228 248 214 199 135 155 158 161 165 177 308 346 343 343 349 345 352 344 329 359 19 6 336
107 66 153 142 133 131 123 89 99 76 169 121 250 246 265 240 223 213 149 163 167 105 185 139 186 208 166 211 232 201 205 217 197 206 156 160 163 176 169 173 150 78 26 359 346 351 343 338 336 13 12 348 339 328
77 136 132 127 112 89 52 48 95 114 218 243 178 266 218 249 288 21 44 85 131 139 138 214 120 189 217 214 241 240 228 266 270 150 145 139 138 151 167 162 133 81 29 6 345 318 314 344 7 358 332 321 318 345
134 136 135 129 113 108 112 91 90 183 221 202 238 224 232 313 16 300 355 53 61 91 111 194 232 209 221 216 214 238 223 202 166 158 143 151 159 161 148 135 146 145 317 309 346 334 325 335 335 337 328 329 330 329
129 130 130 123 96 100 102 71 341 150 200 203 85 112 122 114 313 357 355 312 88 86 255 217 217 217 194 218 194 192 190 158 136 126 180 191 160 133 174 169 187 285 337 336 328 346 340 336 341 340 326 323 328 332
91 120 109 91 75 61 82 127 108 147 137 173 26 288 53 17 24 18 309 296 71 227 239 223 220 242 170 253 235 175 176 161 175 165 176 172 182 161 176 209 210 238 231 290 297 306 335 305 303 312 320 329 328 315
99 131 103 56 87 56 75 3 48 63 109 72 87 358 190 274 254 236 301 132 234 228 210 202 218 193 187 231 221 202 187 144 122 109 98 121 134 153 215 201 163 216 239 238 225 272 274 255 279 266 306 304 324 317
111 82 60 50 73 48 250 20 79 0 129 194 32 194 201 225 246 332 258 230 255 246 269 209 188 147 220 330 135 122 162 140 156 166 166 171 161 147 126 192 186 182 256 270 203 234 257 285 301 301 294 312 309 320
49 60 83 76 69 158 42 22 16 46 31 68 95 249 235 228 323 237 258 257 254 295 240 217 164 99 36 28 200 214 199 146 134 107 172 143 161 227 201 208 211 216 220 226 196 224 240 247 279 316 298 312 322 311
77 334 89 53 34 71 65 28 356 59 217 255 92 286 266 356 49 259 253 267 266 269 270 259 202 212 182 245 299 238 199 161 168 190 219 177 133 54 308 257 248 241 186 184 223 216 240 256 271 287 283 289 288 287
118 238 146 167 126 127 177 120 213 210 159 185 231 271 26 85 70 246 235 231 235 228 227 199 186 168 253 206 202 204 218 172 130 161 251 186 186 174 200 214 262 286 209 179 167 210 227 230 243 271 277 279 300 313
230 219 129 68 120 114 61 25 52 112 166 207 207 129 87 190 247 249 266 223 220 222 199 190 177 196 212 209 224 247 208 169 169 181 173 170 188 190 176 197 239 228 162 170 176 199 234 250 262 261 270 269 237 248
219 164 171 185 93 55 140 142 169 209 219 197 112 185 183 199 235 234 213 240 190 155 246 252 211 200 206 225 233 140 113 111 71 353 306 276 238 232 225 236 206 229 223 195 207 215 228 244 249 252 253 261 268 242
154 141 110 86 37 231 212 187 214 224 184 156 171 210 234 228 234 225 252 207 120 109 250 252 251 172 157 273 199 164 149 161 152 193 231 251 307 282 214 198 208 227 235 242 275 275 240 234 243 245 248 251 255 250
196 163 103 157 173 225 233 179 222 264 289 192 294 326 308 279 253 198 137 131 182 220 220 200 181 172 209 185 225 260 217 209 217 189 209 241 229 203 159 160 201 236 222 232 262 279 288 294 295 298 295 285 271 268
112 101 77 171 228 245 245 310 322 5 46 339 297 186 244 297 302 239 212 216 223 144 142 231 238 210 192 196 193 187 261 219 214 224 221 167 176 206 227 228 229 228 225 228 240 250 260 275 257 256 258 262 266 273
118 186 163 205 256 288 24 96 255 209 318 7 263 330 313 347 263 269 218 116 111 213 236 224 214 239 209 216 192 185 96 147 174 196 207 216 222 226 228 231 227 223 227 235 238 242 242 242 252 247 251 254 256 259
59 61 66 23 335 316 261 95 10 308 306 256 249 203 213 207 239 270 308 150 174 199 216 229 223 207 191 171 172 177 150 150 213 230 244 261 272 275 250 228 221 220 224 234 240 237 241 245 245 245 246 251 259 263